PRIVATE WETTERSTATION BILLIGHEIM-ALLFELD                       ZURCK
Wetterdaten: Sonntag, 31.12.2017
Datum Zeit Temp. A. Temp. A. min Temp. A. max Feuchte A. Luftdruck Regen Wind Richtung Richtung Sonnenschein ET Solar Taupunkt Windchill Windben Empfang
31.12.2017 00:00 10,7 C 10,7 C 11,1 C 90 % 1008,4 hPa 1,0 l/m 11,3 km/h (2 Bft) W-NW 292 0 min 0,025 mm 0 W/m 9,1 C 7,7 C 25,7 km/h (4 Bft) 93 %
31.12.2017 00:10 10,6 C 10,6 C 10,7 C 90 % 1008,4 hPa 0,6 l/m 8,0 km/h (2 Bft) W-NW 292 0 min 0,000 mm 0 W/m 9,0 C 9,5 C 16,1 km/h (3 Bft) 87 %
31.12.2017 00:20 10,6 C 10,6 C 10,6 C 90 % 1008,6 hPa 0,8 l/m 6,4 km/h (2 Bft) W-NW 292 0 min 0,000 mm 0 W/m 9,0 C 10,6 C 14,5 km/h (3 Bft) 100 %
31.12.2017 00:30 10,5 C 10,5 C 10,6 C 90 % 1008,9 hPa 0,8 l/m 3,2 km/h (1 Bft) W-NW 292 0 min 0,000 mm 0 W/m 8,9 C 10,5 C 9,7 km/h (2 Bft) 100 %
31.12.2017 00:40 10,5 C 10,5 C 10,5 C 90 % 1008,9 hPa 0,8 l/m 3,2 km/h (1 Bft) W-SW 247 0 min 0,000 mm 0 W/m 8,9 C 10,5 C 19,3 km/h (3 Bft) 100 %
31.12.2017 00:50 10,6 C 10,5 C 10,6 C 91 % 1008,9 hPa 0,8 l/m 9,7 km/h (2 Bft) W-SW 247 0 min 0,000 mm 0 W/m 9,2 C 8,4 C 20,9 km/h (4 Bft) 100 %
31.12.2017 01:00 10,8 C 10,6 C 10,8 C 90 % 1008,9 hPa 0,4 l/m 14,5 km/h (3 Bft) W-SW 247 0 min 0,000 mm 0 W/m 9,2 C 6,3 C 35,4 km/h (5 Bft) 100 %
31.12.2017 01:10 11,0 C 10,8 C 11,0 C 91 % 1008,8 hPa 0,4 l/m 19,3 km/h (3 Bft) W-SW 247 0 min 0,000 mm 0 W/m 9,6 C 4,8 C 45,1 km/h (6 Bft) 100 %
31.12.2017 01:20 11,0 C 11,0 C 11,0 C 90 % 1009,0 hPa 0,0 l/m 20,9 km/h (4 Bft) SW 225 0 min 0,000 mm 0 W/m 9,4 C 4,3 C 51,5 km/h (7 Bft) 100 %
31.12.2017 01:30 10,9 C 10,9 C 11,0 C 90 % 1009,0 hPa 0,0 l/m 22,5 km/h (4 Bft) W-SW 247 0 min 0,000 mm 0 W/m 9,3 C 3,7 C 48,3 km/h (6 Bft) 100 %
31.12.2017 01:40 10,9 C 10,9 C 10,9 C 90 % 1009,1 hPa 0,0 l/m 24,1 km/h (4 Bft) W-SW 247 0 min 0,000 mm 0 W/m 9,3 C 3,3 C 49,9 km/h (6 Bft) 100 %
31.12.2017 01:50 10,9 C 10,9 C 10,9 C 90 % 1009,3 hPa 0,2 l/m 22,5 km/h (4 Bft) W-SW 247 0 min 0,000 mm 0 W/m 9,3 C 3,7 C 40,2 km/h (6 Bft) 100 %
31.12.2017 02:00 10,9 C 10,9 C 10,9 C 90 % 1009,2 hPa 0,0 l/m 24,1 km/h (4 Bft) SW 225 0 min 0,025 mm 0 W/m 9,3 C 3,3 C 48,3 km/h (6 Bft) 100 %
31.12.2017 02:10 10,9 C 10,9 C 10,9 C 90 % 1009,4 hPa 0,0 l/m 20,9 km/h (4 Bft) W-SW 247 0 min 0,000 mm 0 W/m 9,3 C 4,2 C 45,1 km/h (6 Bft) 100 %
31.12.2017 02:20 10,9 C 10,9 C 10,9 C 90 % 1009,4 hPa 0,0 l/m 19,3 km/h (3 Bft) W-SW 247 0 min 0,000 mm 0 W/m 9,3 C 4,7 C 41,8 km/h (6 Bft) 100 %
31.12.2017 02:30 10,8 C 10,8 C 10,9 C 90 % 1009,4 hPa 0,0 l/m 20,9 km/h (4 Bft) W-SW 247 0 min 0,000 mm 0 W/m 9,2 C 4,0 C 49,9 km/h (6 Bft) 100 %
31.12.2017 02:40 10,8 C 10,8 C 10,8 C 90 % 1009,5 hPa 0,2 l/m 20,9 km/h (4 Bft) W-SW 247 0 min 0,000 mm 0 W/m 9,2 C 4,0 C 43,5 km/h (6 Bft) 100 %
31.12.2017 02:50 10,8 C 10,8 C 10,8 C 90 % 1009,7 hPa 0,0 l/m 22,5 km/h (4 Bft) W-SW 247 0 min 0,000 mm 0 W/m 9,2 C 3,6 C 46,7 km/h (6 Bft) 100 %
31.12.2017 03:00 10,8 C 10,8 C 10,8 C 90 % 1009,6 hPa 0,0 l/m 22,5 km/h (4 Bft) W-SW 247 0 min 0,025 mm 0 W/m 9,2 C 3,6 C 54,7 km/h (7 Bft) 100 %
31.12.2017 03:10 10,8 C 10,8 C 10,8 C 90 % 1009,9 hPa 0,0 l/m 22,5 km/h (4 Bft) SW 225 0 min 0,000 mm 0 W/m 9,2 C 3,6 C 56,3 km/h (7 Bft) 100 %
31.12.2017 03:20 10,8 C 10,8 C 10,8 C 90 % 1010,0 hPa 0,0 l/m 22,5 km/h (4 Bft) W-SW 247 0 min 0,000 mm 0 W/m 9,2 C 3,6 C 48,3 km/h (6 Bft) 100 %
31.12.2017 03:30 10,8 C 10,8 C 10,8 C 90 % 1009,9 hPa 0,0 l/m 19,3 km/h (3 Bft) SW 225 0 min 0,000 mm 0 W/m 9,2 C 4,5 C 40,2 km/h (6 Bft) 89 %
31.12.2017 03:40 10,8 C 10,8 C 10,8 C 91 % 1009,7 hPa 0,0 l/m 17,7 km/h (3 Bft) SW 225 0 min 0,000 mm 0 W/m 9,4 C 5,1 C 37,0 km/h (5 Bft) 100 %
31.12.2017 03:50 10,8 C 10,8 C 10,8 C 91 % 1009,8 hPa 0,0 l/m 16,1 km/h (3 Bft) SW 225 0 min 0,000 mm 0 W/m 9,4 C 5,7 C 37,0 km/h (5 Bft) 100 %
31.12.2017 04:00 10,8 C 10,8 C 10,8 C 91 % 1009,8 hPa 0,0 l/m 14,5 km/h (3 Bft) SW 225 0 min 0,025 mm 0 W/m 9,4 C 6,3 C 29,0 km/h (5 Bft) 100 %
31.12.2017 04:10 10,7 C 10,7 C 10,8 C 91 % 1009,7 hPa 0,0 l/m 16,1 km/h (3 Bft) S-SW 202 0 min 0,000 mm 0 W/m 9,3 C 5,5 C 30,6 km/h (5 Bft) 100 %
31.12.2017 04:20 10,6 C 10,6 C 10,7 C 91 % 1009,9 hPa 0,0 l/m 17,7 km/h (3 Bft) S-SW 202 0 min 0,000 mm 0 W/m 9,2 C 4,8 C 32,2 km/h (5 Bft) 100 %
31.12.2017 04:30 10,6 C 10,6 C 10,6 C 91 % 1009,8 hPa 0,0 l/m 19,3 km/h (3 Bft) S-SW 202 0 min 0,000 mm 0 W/m 9,2 C 4,3 C 33,8 km/h (5 Bft) 100 %
31.12.2017 04:40 10,6 C 10,6 C 10,6 C 91 % 1009,8 hPa 0,0 l/m 19,3 km/h (3 Bft) S-SW 202 0 min 0,000 mm 0 W/m 9,2 C 4,3 C 38,6 km/h (5 Bft) 100 %
31.12.2017 04:50 10,4 C 10,4 C 10,6 C 91 % 1009,9 hPa 0,0 l/m 16,1 km/h (3 Bft) SW 225 0 min 0,000 mm 0 W/m 9,0 C 5,2 C 33,8 km/h (5 Bft) 99 %
31.12.2017 05:00 10,3 C 10,3 C 10,4 C 90 % 1010,0 hPa 0,0 l/m 14,5 km/h (3 Bft) SW 225 0 min 0,025 mm 0 W/m 8,7 C 5,7 C 29,0 km/h (5 Bft) 100 %
31.12.2017 05:10 10,3 C 10,3 C 10,3 C 90 % 1010,0 hPa 0,0 l/m 17,7 km/h (3 Bft) S-SW 202 0 min 0,000 mm 0 W/m 8,7 C 4,5 C 43,5 km/h (6 Bft) 100 %
31.12.2017 05:20 10,2 C 10,2 C 10,3 C 90 % 1009,9 hPa 0,0 l/m 19,3 km/h (3 Bft) S-SW 202 0 min 0,000 mm 0 W/m 8,6 C 3,8 C 38,6 km/h (5 Bft) 100 %
31.12.2017 05:30 10,2 C 10,2 C 10,2 C 90 % 1010,0 hPa 0,0 l/m 20,9 km/h (4 Bft) SW 225 0 min 0,000 mm 0 W/m 8,6 C 3,3 C 38,6 km/h (5 Bft) 100 %
31.12.2017 05:40 10,3 C 10,2 C 10,3 C 90 % 1010,2 hPa 0,0 l/m 22,5 km/h (4 Bft) S-SW 202 0 min 0,000 mm 0 W/m 8,7 C 2,9 C 37,0 km/h (5 Bft) 100 %
31.12.2017 05:50 10,3 C 10,3 C 10,3 C 91 % 1010,3 hPa 0,0 l/m 19,3 km/h (3 Bft) SW 225 0 min 0,000 mm 0 W/m 8,9 C 3,9 C 35,4 km/h (5 Bft) 100 %
31.12.2017 06:00 10,4 C 10,3 C 10,4 C 91 % 1010,2 hPa 0,0 l/m 20,9 km/h (4 Bft) SW 225 0 min 0,025 mm 0 W/m 9,0 C 3,5 C 40,2 km/h (6 Bft) 100 %
31.12.2017 06:10 10,6 C 10,4 C 10,6 C 90 % 1010,3 hPa 0,0 l/m 19,3 km/h (3 Bft) SW 225 0 min 0,000 mm 0 W/m 9,0 C 4,3 C 35,4 km/h (5 Bft) 100 %
31.12.2017 06:20 10,7 C 10,6 C 10,7 C 90 % 1010,2 hPa 0,0 l/m 17,7 km/h (3 Bft) SW 225 0 min 0,000 mm 0 W/m 9,1 C 5,0 C 35,4 km/h (5 Bft) 100 %
31.12.2017 06:30 10,6 C 10,6 C 10,7 C 90 % 1010,3 hPa 0,0 l/m 16,1 km/h (3 Bft) SW 225 0 min 0,000 mm 0 W/m 9,0 C 5,4 C 30,6 km/h (5 Bft) 100 %
31.12.2017 06:40 10,6 C 10,6 C 10,6 C 90 % 1010,4 hPa 0,0 l/m 17,7 km/h (3 Bft) SW 225 0 min 0,000 mm 0 W/m 9,0 C 4,8 C 32,2 km/h (5 Bft) 100 %
31.12.2017 06:50 10,6 C 10,6 C 10,6 C 90 % 1010,5 hPa 0,0 l/m 17,7 km/h (3 Bft) SW 225 0 min 0,000 mm 0 W/m 9,0 C 4,8 C 38,6 km/h (5 Bft) 100 %
31.12.2017 07:00 10,7 C 10,6 C 10,7 C 90 % 1010,6 hPa 0,0 l/m 16,1 km/h (3 Bft) SW 225 0 min 0,025 mm 0 W/m 9,1 C 5,5 C 37,0 km/h (5 Bft) 100 %
31.12.2017 07:10 10,6 C 10,6 C 10,7 C 90 % 1010,6 hPa 0,0 l/m 14,5 km/h (3 Bft) S-SW 202 0 min 0,000 mm 0 W/m 9,0 C 6,1 C 29,0 km/h (5 Bft) 100 %
31.12.2017 07:20 10,6 C 10,6 C 10,6 C 90 % 1010,6 hPa 0,0 l/m 12,9 km/h (3 Bft) S-SW 202 0 min 0,000 mm 0 W/m 9,0 C 6,8 C 24,1 km/h (4 Bft) 100 %
31.12.2017 07:30 10,5 C 10,5 C 10,6 C 90 % 1010,7 hPa 0,0 l/m 17,7 km/h (3 Bft) S-SW 202 0 min 0,000 mm 0 W/m 8,9 C 4,7 C 33,8 km/h (5 Bft) 100 %
31.12.2017 07:40 10,5 C 10,5 C 10,5 C 90 % 1010,7 hPa 0,0 l/m 20,9 km/h (4 Bft) S-SW 202 0 min 0,000 mm 0 W/m 8,9 C 3,7 C 35,4 km/h (5 Bft) 100 %
31.12.2017 07:50 10,5 C 10,5 C 10,5 C 90 % 1010,7 hPa 0,0 l/m 20,9 km/h (4 Bft) S-SW 202 0 min 0,000 mm 0 W/m 8,9 C 3,7 C 35,4 km/h (5 Bft) 100 %
31.12.2017 08:00 10,6 C 10,5 C 10,6 C 89 % 1010,7 hPa 0,0 l/m 19,3 km/h (3 Bft) S-SW 202 0 min 0,025 mm 0 W/m 8,9 C 4,3 C 37,0 km/h (5 Bft) 100 %
31.12.2017 08:10 10,6 C 10,6 C 10,6 C 89 % 1010,7 hPa 0,0 l/m 19,3 km/h (3 Bft) SW 225 0 min 0,000 mm 0 W/m 8,9 C 4,3 C 33,8 km/h (5 Bft) 100 %
31.12.2017 08:20 10,5 C 10,5 C 10,6 C 89 % 1010,7 hPa 0,0 l/m 19,3 km/h (3 Bft) S-SW 202 0 min 0,000 mm 0 W/m 8,8 C 4,2 C 30,6 km/h (5 Bft) 100 %
31.12.2017 08:30 10,5 C 10,4 C 10,5 C 88 % 1010,7 hPa 0,0 l/m 22,5 km/h (4 Bft) SW 225 0 min 0,000 mm 5 W/m 8,6 C 3,2 C 37,0 km/h (5 Bft) 100 %
31.12.2017 08:40 10,4 C 10,4 C 10,5 C 88 % 1010,7 hPa 0,0 l/m 19,3 km/h (3 Bft) SW 225 0 min 0,000 mm 0 W/m 8,5 C 4,0 C 40,2 km/h (6 Bft) 100 %
31.12.2017 08:50 10,4 C 10,4 C 10,4 C 88 % 1010,7 hPa 0,0 l/m 17,7 km/h (3 Bft) SW 225 0 min 0,000 mm 5 W/m 8,5 C 4,6 C 33,8 km/h (5 Bft) 100 %
31.12.2017 09:00 10,4 C 10,4 C 10,4 C 88 % 1010,7 hPa 0,0 l/m 17,7 km/h (3 Bft) SW 225 0 min 0,025 mm 7 W/m 8,5 C 4,6 C 32,2 km/h (5 Bft) 100 %
31.12.2017 09:10 10,5 C 10,4 C 10,5 C 87 % 1010,8 hPa 0,0 l/m 14,5 km/h (3 Bft) SW 225 0 min 0,000 mm 9 W/m 8,4 C 5,9 C 32,2 km/h (5 Bft) 100 %
31.12.2017 09:20 10,4 C 10,4 C 10,5 C 87 % 1010,9 hPa 0,0 l/m 14,5 km/h (3 Bft) SW 225 0 min 0,000 mm 16 W/m 8,3 C 5,8 C 32,2 km/h (5 Bft) 100 %
31.12.2017 09:30 10,4 C 10,4 C 10,5 C 87 % 1011,0 hPa 0,0 l/m 9,7 km/h (2 Bft) S-SW 202 0 min 0,000 mm 53 W/m 8,3 C 8,2 C 20,9 km/h (4 Bft) 100 %
31.12.2017 09:40 10,5 C 10,4 C 10,5 C 86 % 1010,8 hPa 0,0 l/m 14,5 km/h (3 Bft) S-SW 202 0 min 0,000 mm 58 W/m 8,3 C 5,9 C 30,6 km/h (5 Bft) 100 %
31.12.2017 09:50 10,6 C 10,5 C 10,6 C 86 % 1010,9 hPa 0,0 l/m 14,5 km/h (3 Bft) S-SW 202 0 min 0,000 mm 40 W/m 8,4 C 6,1 C 32,2 km/h (5 Bft) 100 %
31.12.2017 10:00 10,7 C 10,6 C 10,7 C 85 % 1010,8 hPa 0,0 l/m 14,5 km/h (3 Bft) S-SW 202 0 min 0,025 mm 37 W/m 8,3 C 6,2 C 32,2 km/h (5 Bft) 100 %
31.12.2017 10:10 10,7 C 10,7 C 10,7 C 84 % 1010,7 hPa 0,0 l/m 19,3 km/h (3 Bft) SW 225 0 min 0,000 mm 28 W/m 8,1 C 4,4 C 40,2 km/h (6 Bft) 100 %
31.12.2017 10:20 10,7 C 10,7 C 10,7 C 84 % 1010,7 hPa 0,0 l/m 17,7 km/h (3 Bft) SW 225 0 min 0,000 mm 107 W/m 8,1 C 5,0 C 35,4 km/h (5 Bft) 100 %
31.12.2017 10:30 11,1 C 10,7 C 11,1 C 83 % 1010,7 hPa 0,0 l/m 19,3 km/h (3 Bft) SW 225 10 min 0,000 mm 204 W/m 8,3 C 4,9 C 40,2 km/h (6 Bft) 100 %
31.12.2017 10:40 11,2 C 11,1 C 11,2 C 82 % 1010,7 hPa 0,0 l/m 22,5 km/h (4 Bft) SW 225 0 min 0,000 mm 142 W/m 8,2 C 4,1 C 43,5 km/h (6 Bft) 100 %
31.12.2017 11:00 11,1 C 11,1 C 11,2 C 82 % 1010,4 hPa 0,0 l/m 20,0 km/h (4 Bft) SW 223 0 min 0,055 mm 88 W/m 8,1 C 4,7 C 37,0 km/h (5 Bft) 100 %
31.12.2017 11:10 11,2 C 11,1 C 11,2 C 81 % 1010,2 hPa 0,0 l/m 13,8 km/h (3 Bft) S-SW 205 0 min 0,000 mm 81 W/m 8,1 C 7,1 C 29,0 km/h (5 Bft) 100 %
31.12.2017 11:20 11,2 C 11,2 C 11,2 C 82 % 1010,2 hPa 0,0 l/m 12,6 km/h (3 Bft) S-SW 205 0 min 0,000 mm 65 W/m 8,2 C 7,6 C 24,1 km/h (4 Bft) 100 %
31.12.2017 11:30 11,2 C 11,2 C 11,2 C 81 % 1010,1 hPa 0,0 l/m 15,0 km/h (3 Bft) SW 218 0 min 0,000 mm 118 W/m 8,1 C 6,6 C 27,4 km/h (4 Bft) 100 %
31.12.2017 11:40 11,3 C 11,2 C 11,3 C 80 % 1009,9 hPa 0,0 l/m 13,5 km/h (3 Bft) SW 221 0 min 0,000 mm 98 W/m 8,0 C 7,3 C 22,5 km/h (4 Bft) 100 %
31.12.2017 11:50 11,4 C 11,3 C 11,4 C 80 % 1010,0 hPa 0,0 l/m 14,8 km/h (3 Bft) SW 227 0 min 0,000 mm 105 W/m 8,1 C 6,9 C 25,7 km/h (4 Bft) 100 %
31.12.2017 12:00 11,6 C 11,4 C 11,6 C 79 % 1009,8 hPa 0,0 l/m 15,2 km/h (3 Bft) S-SW 192 0 min 0,076 mm 97 W/m 8,1 C 7,0 C 27,4 km/h (4 Bft) 100 %
31.12.2017 12:10 11,7 C 11,6 C 11,7 C 79 % 1009,8 hPa 0,0 l/m 16,6 km/h (3 Bft) S-SW 200 0 min 0,000 mm 70 W/m 8,2 C 6,6 C 30,6 km/h (5 Bft) 100 %
31.12.2017 12:20 11,8 C 11,7 C 11,8 C 78 % 1009,7 hPa 0,0 l/m 13,7 km/h (3 Bft) W-SW 242 0 min 0,000 mm 63 W/m 8,1 C 7,8 C 25,7 km/h (4 Bft) 100 %
31.12.2017 12:30 11,8 C 11,8 C 11,8 C 78 % 1009,5 hPa 0,0 l/m 11,1 km/h (2 Bft) S 184 0 min 0,000 mm 69 W/m 8,1 C 9,0 C 24,1 km/h (4 Bft) 100 %
31.12.2017 12:40 11,9 C 11,8 C 11,9 C 78 % 1009,4 hPa 0,0 l/m 14,3 km/h (3 Bft) SW 217 0 min 0,000 mm 44 W/m 8,2 C 7,7 C 29,0 km/h (5 Bft) 100 %
31.12.2017 12:50 11,9 C 11,9 C 11,9 C 78 % 1009,3 hPa 0,0 l/m 15,5 km/h (3 Bft) S-SW 202 0 min 0,000 mm 35 W/m 8,2 C 7,2 C 29,0 km/h (5 Bft) 100 %
31.12.2017 13:00 11,9 C 11,9 C 11,9 C 78 % 1009,3 hPa 0,0 l/m 10,2 km/h (2 Bft) SW 231 0 min 0,051 mm 33 W/m 8,2 C 9,6 C 25,7 km/h (4 Bft) 100 %
31.12.2017 13:10 11,9 C 11,9 C 11,9 C 78 % 1009,3 hPa 0,0 l/m 10,9 km/h (2 Bft) SW 220 0 min 0,000 mm 32 W/m 8,2 C 9,2 C 29,0 km/h (5 Bft) 100 %
31.12.2017 13:20 12,0 C 11,9 C 12,0 C 78 % 1009,1 hPa 0,0 l/m 11,9 km/h (2 Bft) W 259 0 min 0,000 mm 33 W/m 8,3 C 8,9 C 32,2 km/h (5 Bft) 91 %
31.12.2017 13:30 12,0 C 11,9 C 12,0 C 78 % 1008,9 hPa 0,0 l/m 9,3 km/h (2 Bft) W-SW 252 0 min 0,000 mm 46 W/m 8,3 C 10,2 C 29,0 km/h (5 Bft) 100 %
31.12.2017 13:40 12,2 C 12,0 C 12,2 C 78 % 1008,9 hPa 0,0 l/m 16,5 km/h (3 Bft) S-SW 210 10 min 0,000 mm 156 W/m 8,5 C 7,3 C 33,8 km/h (5 Bft) 100 %
31.12.2017 13:50 12,4 C 12,2 C 12,4 C 77 % 1008,6 hPa 0,0 l/m 16,3 km/h (3 Bft) SW 217 0 min 0,000 mm 93 W/m 8,5 C 7,6 C 37,0 km/h (5 Bft) 100 %
31.12.2017 14:00 12,4 C 12,3 C 12,4 C 77 % 1008,4 hPa 0,0 l/m 18,4 km/h (3 Bft) W-SW 257 0 min 0,076 mm 81 W/m 8,5 C 6,9 C 35,4 km/h (5 Bft) 100 %
31.12.2017 14:10 12,4 C 12,4 C 12,4 C 77 % 1008,3 hPa 0,0 l/m 17,7 km/h (3 Bft) SW 217 0 min 0,000 mm 70 W/m 8,5 C 7,1 C 35,4 km/h (5 Bft) 100 %
31.12.2017 14:20 12,4 C 12,4 C 12,4 C 78 % 1008,2 hPa 0,0 l/m 14,9 km/h (3 Bft) W 269 0 min 0,000 mm 83 W/m 8,7 C 8,1 C 30,6 km/h (5 Bft) 100 %
31.12.2017 14:30 12,4 C 12,4 C 12,4 C 78 % 1008,1 hPa 0,0 l/m 9,3 km/h (2 Bft) S-SW 207 0 min 0,000 mm 125 W/m 8,7 C 10,6 C 20,9 km/h (4 Bft) 99 %
31.12.2017 14:40 12,6 C 12,4 C 12,6 C 77 % 1007,9 hPa 0,0 l/m 12,8 km/h (3 Bft) S-SW 206 0 min 0,000 mm 81 W/m 8,7 C 9,2 C 32,2 km/h (5 Bft) 99 %
31.12.2017 14:50 12,6 C 12,6 C 12,6 C 77 % 1007,8 hPa 0,0 l/m 11,7 km/h (2 Bft) SW 227 0 min 0,000 mm 63 W/m 8,7 C 9,6 C 25,7 km/h (4 Bft) 100 %
31.12.2017 15:00 12,5 C 12,5 C 12,6 C 77 % 1007,4 hPa 0,0 l/m 8,1 km/h (2 Bft) W-SW 252 0 min 0,076 mm 62 W/m 8,6 C 11,4 C 20,9 km/h (4 Bft) 100 %
31.12.2017 15:10 12,5 C 12,4 C 12,5 C 77 % 1007,2 hPa 0,0 l/m 8,8 km/h (2 Bft) W-SW 247 0 min 0,000 mm 56 W/m 8,6 C 11,0 C 22,5 km/h (4 Bft) 100 %
31.12.2017 15:20 12,5 C 12,5 C 12,5 C 77 % 1007,2 hPa 0,0 l/m 8,8 km/h (2 Bft) S-SW 209 0 min 0,000 mm 58 W/m 8,6 C 11,0 C 19,3 km/h (3 Bft) 100 %
31.12.2017 15:30 12,6 C 12,5 C 12,6 C 77 % 1007,0 hPa 0,0 l/m 5,6 km/h (1 Bft) S-SW 210 0 min 0,000 mm 67 W/m 8,7 C 12,6 C 20,9 km/h (4 Bft) 100 %
31.12.2017 15:40 12,6 C 12,6 C 12,6 C 77 % 1006,8 hPa 0,0 l/m 2,8 km/h (1 Bft) S-SW 211 0 min 0,000 mm 67 W/m 8,7 C 12,6 C 16,1 km/h (3 Bft) 99 %
31.12.2017 15:50 12,6 C 12,6 C 12,7 C 76 % 1006,7 hPa 0,0 l/m 4,6 km/h (1 Bft) S-SW 211 0 min 0,000 mm 54 W/m 8,5 C 12,6 C 16,1 km/h (3 Bft) 100 %
31.12.2017 16:00 12,6 C 12,6 C 12,6 C 76 % 1006,4 hPa 0,0 l/m 6,8 km/h (2 Bft) SW 220 0 min 0,051 mm 30 W/m 8,5 C 12,4 C 19,3 km/h (3 Bft) 100 %
31.12.2017 16:10 12,4 C 12,4 C 12,6 C 75 % 1006,3 hPa 0,0 l/m 8,4 km/h (2 Bft) S-SW 211 0 min 0,000 mm 16 W/m 8,1 C 11,1 C 19,3 km/h (3 Bft) 100 %
31.12.2017 16:20 12,2 C 12,2 C 12,4 C 75 % 1006,3 hPa 0,0 l/m 5,3 km/h (1 Bft) SW 223 0 min 0,000 mm 11 W/m 7,9 C 12,2 C 17,7 km/h (3 Bft) 99 %
31.12.2017 16:30 12,0 C 11,9 C 12,2 C 75 % 1006,2 hPa 0,0 l/m 6,6 km/h (2 Bft) S-SW 192 0 min 0,000 mm 5 W/m 7,7 C 11,9 C 24,1 km/h (4 Bft) 100 %
31.12.2017 16:40 11,9 C 11,9 C 12,0 C 74 % 1006,1 hPa 0,0 l/m 10,2 km/h (2 Bft) S-SW 200 0 min 0,000 mm 0 W/m 7,4 C 9,6 C 20,9 km/h (4 Bft) 100 %
31.12.2017 16:50 11,8 C 11,8 C 11,9 C 74 % 1006,0 hPa 0,0 l/m 8,9 km/h (2 Bft) S-SW 209 0 min 0,000 mm 0 W/m 7,3 C 10,2 C 20,9 km/h (4 Bft) 100 %
31.12.2017 17:00 11,7 C 11,7 C 11,8 C 74 % 1006,0 hPa 0,0 l/m 8,1 km/h (2 Bft) S-SW 193 0 min 0,025 mm 0 W/m 7,2 C 10,6 C 16,1 km/h (3 Bft) 100 %
31.12.2017 17:10 11,5 C 11,5 C 11,7 C 74 % 1005,8 hPa 0,0 l/m 5,4 km/h (1 Bft) S-SW 198 0 min 0,000 mm 0 W/m 7,0 C 11,5 C 17,7 km/h (3 Bft) 100 %
31.12.2017 17:20 11,2 C 11,2 C 11,5 C 75 % 1005,7 hPa 0,0 l/m 2,7 km/h (1 Bft) S-SW 208 0 min 0,000 mm 0 W/m 6,9 C 11,2 C 16,1 km/h (3 Bft) 100 %
31.12.2017 17:30 10,9 C 10,9 C 11,2 C 75 % 1005,5 hPa 0,0 l/m 6,6 km/h (2 Bft) S-SW 195 0 min 0,000 mm 0 W/m 6,6 C 10,8 C 17,7 km/h (3 Bft) 100 %
31.12.2017 17:40 10,7 C 10,7 C 10,9 C 76 % 1005,5 hPa 0,0 l/m 3,2 km/h (1 Bft) S 191 0 min 0,000 mm 0 W/m 6,6 C 10,7 C 17,7 km/h (3 Bft) 100 %
31.12.2017 17:50 10,2 C 10,2 C 10,7 C 78 % 1005,5 hPa 0,0 l/m 1,4 km/h (1 Bft) S-SW 196 0 min 0,000 mm 0 W/m 6,5 C 10,2 C 17,7 km/h (3 Bft) 100 %
31.12.2017 18:00 9,8 C 9,8 C 10,2 C 79 % 1005,5 hPa 0,0 l/m 2,8 km/h (1 Bft) S 181 0 min 0,026 mm 0 W/m 6,3 C 9,8 C 11,3 km/h (2 Bft) 100 %
31.12.2017 18:10 9,6 C 9,6 C 9,8 C 80 % 1005,4 hPa 0,0 l/m 4,4 km/h (1 Bft) S 187 0 min 0,000 mm 0 W/m 6,3 C 9,6 C 14,5 km/h (3 Bft) 100 %
31.12.2017 18:20 9,6 C 9,6 C 9,6 C 81 % 1005,2 hPa 0,0 l/m 4,6 km/h (1 Bft) S-SW 194 0 min 0,000 mm 0 W/m 6,5 C 9,6 C 16,1 km/h (3 Bft) 100 %
31.12.2017 18:30 9,7 C 9,6 C 9,7 C 80 % 1005,1 hPa 0,0 l/m 4,7 km/h (1 Bft) S-SO 163 0 min 0,000 mm 0 W/m 6,4 C 9,7 C 17,7 km/h (3 Bft) 100 %
31.12.2017 18:40 9,8 C 9,7 C 9,8 C 80 % 1005,0 hPa 0,0 l/m 4,4 km/h (1 Bft) S 188 0 min 0,000 mm 0 W/m 6,5 C 9,8 C 16,1 km/h (3 Bft) 100 %
31.12.2017 18:50 9,7 C 9,7 C 9,8 C 80 % 1004,9 hPa 0,0 l/m 5,5 km/h (1 Bft) S-SW 199 0 min 0,000 mm 0 W/m 6,4 C 9,7 C 16,1 km/h (3 Bft) 100 %
31.12.2017 19:00 9,6 C 9,6 C 9,7 C 80 % 1004,7 hPa 0,0 l/m 6,3 km/h (2 Bft) S 178 0 min 0,025 mm 0 W/m 6,3 C 9,6 C 17,7 km/h (3 Bft) 100 %
31.12.2017 19:10 9,5 C 9,5 C 9,6 C 80 % 1004,6 hPa 0,0 l/m 8,6 km/h (2 Bft) S-SO 158 0 min 0,000 mm 0 W/m 6,2 C 7,9 C 19,3 km/h (3 Bft) 100 %
31.12.2017 19:20 9,3 C 9,3 C 9,5 C 81 % 1004,5 hPa 0,0 l/m 2,6 km/h (1 Bft) S-SO 158 0 min 0,000 mm 0 W/m 6,2 C 9,3 C 11,3 km/h (2 Bft) 100 %
31.12.2017 19:30 9,1 C 9,1 C 9,3 C 82 % 1004,6 hPa 0,0 l/m 5,0 km/h (1 Bft) S-SW 195 0 min 0,000 mm 0 W/m 6,2 C 9,1 C 14,5 km/h (3 Bft) 100 %
31.12.2017 19:40 8,7 C 8,7 C 9,1 C 82 % 1004,5 hPa 0,0 l/m 1,9 km/h (1 Bft) S 175 0 min 0,000 mm 0 W/m 5,8 C 8,7 C 12,9 km/h (3 Bft) 100 %
31.12.2017 19:50 8,6 C 8,6 C 8,7 C 83 % 1004,7 hPa 0,0 l/m 2,4 km/h (1 Bft) S 180 0 min 0,000 mm 0 W/m 5,9 C 8,6 C 12,9 km/h (3 Bft) 100 %
31.12.2017 20:00 8,6 C 8,6 C 8,6 C 83 % 1004,6 hPa 0,0 l/m 3,4 km/h (1 Bft) S-SO 153 0 min 0,026 mm 0 W/m 5,9 C 8,6 C 11,3 km/h (2 Bft) 100 %
31.12.2017 20:10 8,5 C 8,5 C 8,6 C 82 % 1004,6 hPa 0,0 l/m 3,7 km/h (1 Bft) S 172 0 min 0,000 mm 0 W/m 5,6 C 8,5 C 11,3 km/h (2 Bft) 100 %
31.12.2017 20:20 8,7 C 8,5 C 8,7 C 82 % 1004,4 hPa 0,0 l/m 6,4 km/h (2 Bft) S 185 0 min 0,000 mm 0 W/m 5,8 C 8,7 C 16,1 km/h (3 Bft) 99 %
31.12.2017 20:30 8,8 C 8,7 C 8,8 C 81 % 1004,3 hPa 0,0 l/m 7,4 km/h (2 Bft) S 185 0 min 0,000 mm 0 W/m 5,7 C 8,0 C 17,7 km/h (3 Bft) 100 %
31.12.2017 20:40 8,6 C 8,6 C 8,8 C 82 % 1004,4 hPa 0,0 l/m 7,9 km/h (2 Bft) S 173 0 min 0,000 mm 0 W/m 5,7 C 7,5 C 19,3 km/h (3 Bft) 100 %
31.12.2017 20:50 8,3 C 8,3 C 8,6 C 83 % 1004,3 hPa 0,0 l/m 6,7 km/h (2 Bft) S-SW 192 0 min 0,000 mm 0 W/m 5,6 C 8,1 C 19,3 km/h (3 Bft) 100 %
31.12.2017 21:00 8,3 C 8,3 C 8,3 C 83 % 1004,2 hPa 0,0 l/m 5,4 km/h (1 Bft) S 186 0 min 0,025 mm 0 W/m 5,6 C 8,3 C 14,5 km/h (3 Bft) 100 %
31.12.2017 21:10 8,4 C 8,3 C 8,4 C 82 % 1004,2 hPa 0,0 l/m 8,0 km/h (2 Bft) S 180 0 min 0,000 mm 0 W/m 5,5 C 7,2 C 19,3 km/h (3 Bft) 88 %
31.12.2017 21:20 8,4 C 8,4 C 8,4 C 82 % 1004,1 hPa 0,0 l/m 11,3 km/h (2 Bft) S 180 0 min 0,000 mm 0 W/m 5,5 C 5,1 C 29,0 km/h (5 Bft) 98 %
31.12.2017 21:30 8,4 C 8,4 C 8,5 C 82 % 1004,1 hPa 0,0 l/m 11,3 km/h (2 Bft) S 180 0 min 0,000 mm 0 W/m 5,5 C 5,1 C 24,1 km/h (4 Bft) 97 %
31.12.2017 21:40 8,3 C 8,3 C 8,4 C 82 % 1003,9 hPa 0,0 l/m 8,0 km/h (2 Bft) S 180 0 min 0,000 mm 0 W/m 5,4 C 7,1 C 24,1 km/h (4 Bft) 98 %
31.12.2017 21:50 8,3 C 8,3 C 8,4 C 82 % 1003,8 hPa 0,0 l/m 9,7 km/h (2 Bft) S 180 0 min 0,000 mm 0 W/m 5,4 C 5,9 C 22,5 km/h (4 Bft) 96 %
31.12.2017 22:00 8,2 C 8,2 C 8,3 C 83 % 1003,7 hPa 0,0 l/m 9,7 km/h (2 Bft) S 180 0 min 0,025 mm 0 W/m 5,5 C 5,8 C 24,1 km/h (4 Bft) 98 %
31.12.2017 22:10 8,2 C 8,2 C 8,2 C 83 % 1003,8 hPa 0,0 l/m 6,4 km/h (2 Bft) S 180 0 min 0,000 mm 0 W/m 5,5 C 8,2 C 20,9 km/h (4 Bft) 98 %
31.12.2017 22:20 8,2 C 8,1 C 8,2 C 83 % 1003,8 hPa 0,0 l/m 8,0 km/h (2 Bft) S 180 0 min 0,000 mm 0 W/m 5,5 C 7,0 C 20,9 km/h (4 Bft) 97 %
31.12.2017 22:30 8,3 C 8,2 C 8,3 C 82 % 1003,8 hPa 0,0 l/m 9,7 km/h (2 Bft) S 180 0 min 0,000 mm 0 W/m 5,4 C 5,9 C 24,1 km/h (4 Bft) 98 %
31.12.2017 22:40 8,2 C 8,2 C 8,3 C 82 % 1003,7 hPa 0,0 l/m 6,4 km/h (2 Bft) S 180 0 min 0,000 mm 0 W/m 5,3 C 8,2 C 22,5 km/h (4 Bft) 96 %
31.12.2017 22:50 8,2 C 8,2 C 8,2 C 82 % 1003,7 hPa 0,0 l/m 8,0 km/h (2 Bft) S 180 0 min 0,000 mm 0 W/m 5,3 C 7,0 C 24,1 km/h (4 Bft) 98 %
31.12.2017 23:00 8,3 C 8,2 C 8,3 C 81 % 1003,8 hPa 0,0 l/m 9,7 km/h (2 Bft) S 180 0 min 0,025 mm 0 W/m 5,2 C 5,9 C 22,5 km/h (4 Bft) 96 %
31.12.2017 23:10 8,4 C 8,3 C 8,4 C 81 % 1003,7 hPa 0,0 l/m 9,7 km/h (2 Bft) S-SO 157 0 min 0,000 mm 0 W/m 5,3 C 6,0 C 22,5 km/h (4 Bft) 98 %
31.12.2017 23:20 8,5 C 8,4 C 8,5 C 81 % 1003,8 hPa 0,0 l/m 8,0 km/h (2 Bft) S 180 0 min 0,000 mm 0 W/m 5,4 C 7,3 C 17,7 km/h (3 Bft) 98 %
31.12.2017 23:30 8,4 C 8,4 C 8,5 C 81 % 1003,8 hPa 0,0 l/m 8,0 km/h (2 Bft) S 180 0 min 0,000 mm 0 W/m 5,3 C 7,2 C 19,3 km/h (3 Bft) 98 %
31.12.2017 23:40 8,3 C 8,3 C 8,4 C 81 % 1004,0 hPa 0,0 l/m 4,8 km/h (1 Bft) S-SW 202 0 min 0,000 mm 0 W/m 5,2 C 8,3 C 16,1 km/h (3 Bft) 98 %
31.12.2017 23:50 8,3 C 8,2 C 8,3 C 81 % 1004,1 hPa 0,0 l/m 11,3 km/h (2 Bft) S-SW 202 0 min 0,000 mm 0 W/m 5,2 C 4,9 C 24,1 km/h (4 Bft) 97 %
_ Min-Zeit 22:20 22:20 22:10 16:40 22:00 - 17:50 - - - - - 23:00 05:40 00:30 00:10
Minimum _ 8,1 C 8,1 C 8,2 C 74 % 1003,7 hPa - 1,4 km/h (1 Bft) - - - - - 5,2 C 2,9 C 9,7 km/h (2 Bft) 87 %
_ Max-Zeit 15:50 14:50 15:50 00:50 09:30 00:00 01:40 - - 10:30 12:00 10:30 01:10 15:30 03:10 00:20
Maximum _ 12,7 C 12,6 C 12,7 C 91 % 1011,0 hPa 1,0 l/m 24,1 km/h
W-SW (4 Bft)
- - 10 min 0,076 mm 204 W/m 9,6 C 12,6 C 56,3 km/h
W-SW (7 Bft)
100 %
Durchschnitt _ 10,5 C 10,5 C 10,6 C 84 % 1008,0 hPa #6,0 l/m 12,8 km/h (3 Bft) S-SW - #20 min. #0,812 mm 63 W/m 7,9 C 7,0 C 28,3 km/h (4 Bft) 99 %
PRIVATE WETTERSTATION BILLIGHEIM-ALLFELD - www.neckar-odenwald-wetter.de - Holger Sonntag